Location: Beaurecueil
(43.5122°N, 5.5450°E)
Time: 21:04:31
(UTC+00:00)

Cosmos 1943 - Pass Details

Date: 18 September 2020
Orbit: 833 x 850 km, 71.0° (Epoch: 27 October)

Event Time Altitude Azimuth Distance (km) Brightness Sun altitude
Rises 18:02:15 0° 338° (NNW) 3,399 6.8 -4.5°
Reaches altitude 10° 18:04:47 10° 344° (NNW) 2,463 6.0 -5.0°
Maximum altitude 18:10:17 51° 60° (ENE) 1,050 3.4 -6.0°
Drops below altitude 10° 18:15:47 10° 136° (SE) 2,461 5.2 -6.9°
Sets 18:18:17 0° 142° (SE) 3,394 5.9 -7.4°
